Find Yunyao-1 15

NORAD ID: 60745 Int'l Des: NNA 2024-153 Owner: YYAO Country: CN operational
LEOCIRCULARRETROGRADE

Current View

Loading 3D Globe...

About Yunyao-1 15

Description loading...

Upcoming Passes

Passes for default location (London). Set your location on the main map for personalized predictions.

Altitude History

Loading altitude history...

Two-Line Element Set

1 60745U 24153A 26146.34746537 .00052832 00000-0 11287-2 0 9996
2 60745 97.6700 286.8713 0008225 212.2175 147.8571 15.44644145 96731
Epoch: May 26, 2026 • Age: 8 hours

Current Status

Altitude 447.1 km
Velocity 7.64 km/s
Sub-Earth Point -32.36°S, 168.26°E
Launch Date Aug 29, 2024
Age 1.7 years
Type other

Technical Details

Classification Payload
Mass 50.00 kg
Dry Mass 50.00 kg
Total Mass 50.00 kg
Length 2.00 m
Diameter 1.50 m
Span 5.00 m
Shape Box + pan
Manufacturer CGSTL
Bus Type YY-1
Phase Status In Orbit
Owner/State YYAO/CN

Most Searched